Air Resources Laboratory banner image
Air Resources Laboratory web site National Oceanic and Atmospheric Administration (NOAA)

ut roundup


Office: SLC

ASUS45 KSLC 151210
RWRUT

UTAH REGIONAL WEATHER ROUNDUP
NATIONAL WEATHER SERVICE SALT LAKE CITY UT
500 AM MST FRI DEC 15 2017

UTZ001>011-023>025-151300-

NORTHERN UTAH

CITY           SKY/WX    TMP DP  RH WIND       PRES   REMARKS
BRIGHAM CITY   CLEAR     19  16  87 CALM      30.39F
HILL AFB       PTCLDY    24  17  73 E16       30.35F WCI  11
LOGAN          MOCLDY    16  10  77 CALM      30.38F
OGDEN          PTCLDY    22  17  81 S8        30.36F WCI  12
SALT LAKE CITY PTCLDY    25  22  88 SE5       30.37F WCI  19
TOOELE VALLEY  PTCLDY    27  21  80 S6        30.37S WCI  20
WENDOVER       MOCLDY    15  13  91 CALM      30.37F
HEBER CITY       N/A     12  10  92 CALM      30.36F FOG
WEST JORDAN    CLEAR     26  22  87 S7        30.36F WCI  18

$$

UTZ011>015-024>027-151300-

CENTRAL/NORTHEAST UTAH

CITY           SKY/WX    TMP DP  RH WIND       PRES   REMARKS
PROVO AIRPORT  PTCLDY    16  13  88 CALM      30.39F
MOAB/CANYONLAN PTCLDY    26  14  60 CALM      30.34F
DELTA          MOCLDY    14  12  92 E7        30.37F WCI   4
PRICE          PTCLDY    22  12  65 E3        30.31F
RICHFIELD      CLEAR     10  10 100 CALM      30.40S
ROOSEVELT      CLOUDY    12   9  85 W3        30.34F
VERNAL         CLOUDY    15  10  80 W6        30.33F WCI   6

$$

UTZ013>016-019>022-027-151300-

SOUTHERN UTAH

CITY           SKY/WX    TMP DP  RH WIND       PRES   REMARKS
BRYCE CANYON   PTCLDY    10   2  69 W8        30.36F WCI  -2
CEDAR CITY     MOCLDY    14  11  87 CALM      30.34F
MILFORD        MOCLDY    12   8  84 SW5       30.37F WCI   4
ST GEORGE      MOSUNNY   32  16  51 SE7       30.36F WCI  26
HANKSVILLE     MOCLDY    16   5  62 CALM      30.38S
KANAB          CLEAR     25   9  50 N6        30.38S WCI  18
BLANDING         N/A     29  -1  28 CALM      30.38F

$$

REGIONAL REPORTS     COLORADO/ARIZONA

CITY           SKY/WX    TMP DP  RH WIND       PRES   REMARKS
CRAIG, CO      CLOUDY     2  -3  80 CALM      30.32F
GRAND JUNCTION CLOUDY    20  11  68 E7        30.36F WCI  11
RIFLE, CO      CLOUDY    14   7  73 SE3       30.39F
MONTROSE, CO   CLOUDY    16   9  74 SE8       30.40F WCI   5
CORTEZ, CO     CLOUDY    17   1  49 E8        30.33R WCI   7
COLORADO CITY    N/A     18   7  62 CALM      30.36F
PAGE, AZ       PTCLDY    33  11  39 SW5       30.34S WCI  29
GRAND CANYON   MOCLDY     9  -5  53 CALM      30.34S
KINGMAN, AZ    PTCLDY    35  13  40 E7        30.28S WCI  29
FLAGSTAFF, AZ  PTCLDY    30  -9  18 CALM      30.32F

$$

REGIONAL REPORTS    NEVADA/IDAHO/WYOMING

CITY           SKY/WX    TMP DP  RH WIND       PRES   REMARKS
LAS VEGAS, NV  CLEAR     44  19  36 W6        30.29F
ELY, NY        PTCLDY    13   3  64 S16       30.34F WCI  -3
ELKO, NV       MOCLDY    12   8  84 CALM      30.34F
POCATELLO, ID  CLOUDY    21  19  92 NE8       30.37R FOG     WCI  11
BURLEY, ID     FOG       21  18  88 E8        30.32F VSB 1/4 WCI  11
FORT BRIDGER,    N/A     29   7  39 W15       30.29S WCI  18
EVANSTON, WY   CLOUDY    20  15  81 S8        30.29F WCI  10
ROCK SPRINGS,  CLOUDY    30  11  45 W9G20     30.21S WCI  22

$$




Office: LKN ASUS65 KLKN 150726 RTPLKN Regional Temperature And Precipitation Table...Late Evening National Weather Service Elko NV 1126 PM PST Thu Dec 14 2017 ***Automated Airport Stations*** Values represent lows over the last 24 hours... Highs over the last 24 hours and precipitation over the last 24 hours...ending at 10 PM PST/11 PM PDT. .BR LKN 1214 P DH22/TAIRZS/TAIRZI/PPDRZZ/SFDRZZ/SDIRZZ : :ID Station Elev / Max / Min / Pcpn / :.................................................................... : EKO : Elko ASOS 5074 : 43 / 12 / 0.00 / ELY : Ely ASOS 6262 : 46 / 15 / 0.00 / P68 : Eureka ASOS 5936 : 45 / 9 / 0.00 / TPH : Tonopah ASOS 5395 : 58 / 28 / 0.00 / ENV : Wendover AWOS 4236 : 37 / 15 / 0.00 / WMC : Winnemucca ASOS 4314 : 47 / 7 / 0.00 / .END ***Manual synoptic reporting stations in north and central Nevada*** Values reflect the previous 24 hours ending at 10 PM PST/11 PM PDT *Snow stations may only report during periods of snowfall* .BR LKN 1214 P DH22/TAIRZX/TAIRZN/PPDRZZ/SFDRZZ/SDIRZZ : Snow Snow :ID Station Elev Max / Min / Pcpn / Fall / Dpth :.................................................................... : SLKN2 : Elko NWS Office 5235 : 43 / 13 / 0.00 / 0.0 / T SELN2 : Ely Snow 6487 : M / M / M / M / M SWIN2 : Winnemucca Snow 4355 : M / M / M / M / M .END ***Cooperative stations in north and central Nevada*** Values reflect the previous 24 hours Report time as indicated .BR LKN 1214 P DH16/TAIRZX/TAIRZN/PPDRZZ/SFDRZZ/SDIRZZ : Snow Snow :ID Station Elev Time / Max / Min / Pcpn / Fall / Dpth :.................................................................... : ASTN2 : Austin #2 6780 5 PM: M / M / M / M / M B23 : Battle MT. 4SE 4505 5 PM: 46 / 16 / 0.00 / 0.0 / 0 BOWN2 : Beowawe 4700 4 PM: 43 / 4 / 0.00 / 0.0 / 0 MCDN2 : McDermitt 4340 4 PM: 45 / 8 / 0.00 / 0.0 / 0 ORVN2 : Orovada 3W 4200 8 PM: 48 / 10 / 0.00 / 0.0 / 0 PIVN2 : Pine Valley 5166 6 PM: M / M / M / M / M WDVU1 : Wendover 1SSW 4244 11 PM: M / M / M / M / M AWH : Wild Horse Res. 6239 6 PM: M / M / M / M / M .END M = Missing data T = Trace amounts ASOS = Automated Surface Observing System AWOS = Automated Weather Observation System NWS = National Weather Service These data are preliminary and have not undergone final quality control (QC) by NCEI. Therefore, these data are subject to revision. Final and certified data can be accessed at the National Centers For Environmental Information (NCEI) - www.ncei.noaa.gov $$